AEROCUBE 8C (41853 NORAD) Tracking and Keplerian Element Data

This shows tracking and keplerian element data for the satellite.

Feedback or suggestion? Click here.




ElementValue
Catalog41853
NameAEROCUBE 8C
Epoch Orbit10971
Epoch Day319.55463087
Epoch Year2018
RAAN49.3734
Inclination97.9225
Eccentricity0.0010774
Argument of Perigee30.5025
Mean Anonmoly329.6821
Mean Motion14.96555192
Decay Rate1.23E-06
L11 41853U 16067F 18319.55463087 .00000123 00000-0 16127-4 0 9998
L22 41853 97.9225 49.3734 0010774 30.5025 329.6821 14.96555192109717

Live tracking and technical data element details for AEROCUBE 8C (NORAD 41853). AEROCUBE 8C can be tracked NOW for your location showing map with azimuth and elevation plus other details from your city location.

Track the satellite on the map from your city or location and see movement details for azimuth, elevation, latitude, longitude, range, height, and movement on the map or in text.







IsCatalogInMostPopularTable: catalog: 41853, numindb: 133
Update: records affected: 1



GetName: 41853 AEROCUBE 8C

Hit Count: updated at: Fri, 16 Nov 2018 11:25:33 GMT